TimeEST,TemperatureF,Dew PointF,Humidity,Sea Level PressureIn,VisibilityMPH,Wind Direction,Wind SpeedMPH,Gust SpeedMPH,PrecipitationIn,Events,Conditions,WindDirDegrees,DateUTC
12:53 AM,55.0,48.9,80,30.20,10.0,NE,3.5,-,N/A,,Clear,50,2013-02-19 05:53:00
1:53 AM,54.0,48.9,83,30.19,10.0,ENE,4.6,-,N/A,,Clear,60,2013-02-19 06:53:00
2:53 AM,53.1,48.0,83,30.16,10.0,East,4.6,-,N/A,,Clear,80,2013-02-19 07:53:00
3:53 AM,53.1,48.9,86,30.15,10.0,NE,4.6,-,N/A,,Clear,50,2013-02-19 08:53:00
4:53 AM,53.1,48.9,86,30.16,10.0,NE,3.5,-,N/A,,Partly Cloudy,40,2013-02-19 09:53:00
5:53 AM,53.1,48.9,86,30.16,10.0,ENE,5.8,-,N/A,,Clear,60,2013-02-19 10:53:00
6:53 AM,53.1,48.9,86,30.18,10.0,ENE,3.5,-,N/A,,Clear,60,2013-02-19 11:53:00
7:53 AM,55.9,52.0,87,30.18,9.0,ENE,3.5,-,N/A,,Clear,60,2013-02-19 12:53:00
8:53 AM,64.0,54.0,70,30.18,9.0,ESE,6.9,-,N/A,,Partly Cloudy,110,2013-02-19 13:53:00
9:53 AM,71.1,57.0,61,30.18,10.0,SE,9.2,-,N/A,,Clear,130,2013-02-19 14:53:00
10:53 AM,75.0,59.0,57,30.18,10.0,SSE,8.1,-,N/A,,Clear,160,2013-02-19 15:53:00
1:53 PM,79.0,61.0,54,30.12,10.0,South,10.4,-,N/A,,Mostly Cloudy,180,2013-02-19 18:53:00
2:53 PM,77.0,61.0,58,30.12,10.0,South,9.2,-,N/A,,Overcast,170,2013-02-19 19:53:00
3:53 PM,77.0,62.1,60,30.10,10.0,SW,9.2,-,N/A,,Overcast,220,2013-02-19 20:53:00
4:53 PM,75.9,62.1,62,30.09,10.0,SSW,8.1,-,N/A,,Clear,200,2013-02-19 21:53:00
5:53 PM,73.0,63.0,71,30.10,10.0,SW,6.9,-,N/A,,Clear,220,2013-02-19 22:53:00
7:53 PM,69.1,63.0,81,30.12,10.0,Calm,Calm,-,N/A,,Clear,0,2013-02-20 00:53:00
8:53 PM,68.0,64.0,87,30.12,10.0,Calm,Calm,-,N/A,,Clear,0,2013-02-20 01:53:00
9:53 PM,66.9,64.0,90,30.12,9.0,Calm,Calm,-,N/A,,Clear,0,2013-02-20 02:53:00
10:53 PM,64.0,62.1,93,30.12,9.0,East,3.5,-,N/A,,Clear,100,2013-02-20 03:53:00
11:53 PM,64.0,62.1,93,30.11,7.0,Calm,Calm,-,N/A,,Clear,0,2013-02-20 04:53:00